Change the Weather History Date:

Thursday, December 27, 2012

  Actual Average Record
Temperature  
Mean Temperature 30 °F 30 °F  
Max Temperature 32 °F 37 °F 70 °F (1904)
Min Temperature 27 °F 23 °F 0 °F (1925)
Degree Days  
Heating Degree Days 35 35  
Month to date heating degree days 675 869  
Since 1 July heating degree days 1923 2032  
Cooling Degree Days 0 0  
Month to date cooling degree days 0 0  
Year to date cooling degree days 1025 736  
Moisture  
Dew Point 25 °F    
Average Humidity 81    
Maximum Humidity 92    
Minimum Humidity 69    
Precipitation  
Precipitation T in 0.09 in 0.73 in (1968)
Month to date precipitation 5.02 2.50  
Year to date precipitation 41.23 37.84  
Snow  
Snow T in 0.40 in 10.70 in (1894)
Month to date snowfall 7.4 7.1  
Since 1 July snowfall 8.2 9.5  
Snow Depth 5.00 in    
Sea Level Pressure  
Sea Level Pressure 29.90 in    
Wind  
Wind Speed 13 mph (WNW)    
Max Wind Speed 24 mph    
Max Gust Speed 30 mph    
Visibility 7 miles    
Events Snow    
T = Trace of Precipitation, MM = Missing Value Source: NWS Daily Summary

Daily Weather History Graph

Daily Weather History Graph

Search for Another Location

Airport or City:

Trip Planner

Search our weather history database for the weather conditions in past years. The results will help you decide how hot, cold, wet, or windy it might be!

Date:

Astronomy

Dec. 27, 2012 Rise Set
Actual Time 7:43 AM EST 5:01 PM EST
Civil Twilight 7:12 AM EST 5:32 PM EST
Nautical Twilight 6:38 AM EST 6:06 PM EST
Astronomical Twilight 6:04 AM EST 6:39 PM EST
Moon 4:43 PM EST (12/27) 6:52 AM EST (12/27)
Length of Visible Light 10h 19m
Length of Day
9h 18m
Full, 100% of the Moon is Illuminated
Dec 27
Full
Dec 28
Full
Jan 4
Last Quarter
Jan 11
New
Jan 18
First Quarter

Hourly Weather History & Observations

Time (EST) Temp. Windchill Dew Point Humidity Pressure Visibility Wind Dir Wind Speed Gust Speed Precip Events Conditions
12:51 AM 28.0 °F 22.8 °F 27.0 °F 96% 29.66 in 3.0 mi NW 4.6 mph - 0.00 in Snow Light Snow
1:33 AM 28.4 °F 22.2 °F 26.6 °F 93% 29.62 in 1.5 mi West 5.8 mph - 0.00 in Snow Light Snow
1:51 AM 28.9 °F 21.1 °F 27.0 °F 92% 29.69 in 2.0 mi West 8.1 mph - 0.00 in Snow Light Snow
2:04 AM 28.4 °F 19.1 °F 28.4 °F 100% 29.64 in 2.0 mi West 10.4 mph - 0.00 in Snow Light Freezing Drizzle
2:21 AM 28.4 °F 17.5 °F 26.6 °F 93% 29.65 in 3.0 mi WNW 13.8 mph - 0.01 in   Light Freezing Drizzle
2:51 AM 28.9 °F 18.2 °F 27.0 °F 92% 29.73 in 3.0 mi WNW 13.8 mph - 0.01 in   Light Freezing Drizzle
3:51 AM 27.0 °F 15.2 °F 25.0 °F 92% 29.75 in 4.0 mi WNW 15.0 mph - 0.00 in   Light Freezing Drizzle
4:51 AM 27.0 °F 16.7 °F 25.0 °F 92% 29.76 in 4.0 mi West 11.5 mph - 0.00 in Snow Light Freezing Drizzle
5:43 AM 28.4 °F 17.5 °F 24.8 °F 86% 29.73 in 9.0 mi WNW 13.8 mph - 0.00 in Snow Light Snow
5:51 AM 28.0 °F 16.5 °F 25.0 °F 88% 29.80 in 8.0 mi WNW 15.0 mph - 0.00 in Snow Light Snow
6:32 AM 28.4 °F 15.8 °F 24.8 °F 86% 29.77 in 10.0 mi NW 18.4 mph 29.9 mph 0.00 in   Overcast
6:51 AM 28.0 °F 15.3 °F 24.1 °F 85% 29.84 in 10.0 mi WNW 18.4 mph 24.2 mph 0.00 in   Overcast
7:43 AM 28.4 °F 15.8 °F 24.8 °F 86% 29.81 in 6.0 mi WNW 18.4 mph - N/A Snow Light Freezing Drizzle
8:18 AM 28.4 °F 17.0 °F 26.6 °F 93% 29.84 in 2.0 mi WNW 15.0 mph - 0.00 in Snow Light Freezing Drizzle
8:51 AM 28.9 °F 16.5 °F 26.1 °F 89% 29.93 in 2.0 mi West 18.4 mph 21.9 mph 0.00 in Snow Light Freezing Drizzle
9:14 AM 28.4 °F 18.0 °F 26.6 °F 93% 29.88 in 2.0 mi West 12.7 mph 21.9 mph 0.00 in Snow Light Snow
10:03 AM 28.4 °F 16.2 °F 24.8 °F 86% 29.90 in 4.0 mi WNW 17.3 mph - 0.00 in Snow Light Snow
10:51 AM 28.0 °F 17.5 °F 25.0 °F 88% 29.99 in 4.0 mi West 12.7 mph - 0.00 in Snow Light Snow
11:51 AM 28.9 °F 18.6 °F 25.0 °F 85% 29.99 in 9.0 mi West 12.7 mph - 0.00 in Snow Light Snow
12:51 PM 28.9 °F 18.2 °F 25.0 °F 85% 29.98 in 8.0 mi West 13.8 mph - 0.00 in Snow Light Snow
1:51 PM 28.9 °F 17.7 °F 25.0 °F 85% 29.98 in 10.0 mi West 15.0 mph 20.7 mph 0.00 in   Overcast
2:51 PM 30.0 °F 20.0 °F 26.1 °F 85% 30.00 in 10.0 mi WNW 12.7 mph - N/A   Overcast
3:38 PM 30.2 °F 20.8 °F 24.8 °F 80% 29.94 in 10.0 mi West 11.5 mph - N/A   Overcast
3:51 PM 30.9 °F 22.2 °F 25.0 °F 79% 30.02 in 10.0 mi WNW 10.4 mph - N/A   Overcast
4:51 PM 32.0 °F 20.8 °F 25.0 °F 75% 30.04 in 10.0 mi NW 17.3 mph 25.3 mph N/A   Overcast
5:51 PM 32.0 °F 25.6 °F 26.1 °F 79% 30.07 in 9.0 mi WNW 6.9 mph - 0.00 in Snow Light Snow
6:51 PM 30.9 °F 23.5 °F 26.1 °F 82% 30.09 in 9.0 mi WNW 8.1 mph - 0.00 in Snow Light Snow
7:51 PM 30.9 °F 22.2 °F 27.0 °F 85% 30.11 in 9.0 mi West 10.4 mph - 0.00 in Snow Light Snow
8:51 PM 30.0 °F 19.5 °F 24.1 °F 79% 30.12 in 9.0 mi NW 13.8 mph - 0.00 in   Overcast
9:51 PM 30.0 °F 20.5 °F 21.9 °F 72% 30.13 in 10.0 mi WNW 11.5 mph - N/A   Overcast
10:51 PM 30.0 °F 20.5 °F 23.0 °F 75% 30.14 in 10.0 mi WNW 11.5 mph - N/A   Overcast
11:51 PM 28.9 °F 20.4 °F 21.9 °F 75% 30.14 in 10.0 mi NW 9.2 mph - N/A   Overcast